LDPE-2

Last updated on Sun Jun 21 2026 00:03:09 GMT+0000 (Coordinated Universal Time)

1 54219U 22144A 26171.36137514 .00000119 00000+0 00000+0 0 9990 2 54219 5.6217 63.6302 0001867 98.8441 81.6912 1.00534001 11878
UTC large
Height (km)
Speed (km/s)
/
Latitude / Longitude
Inclination (degrees)
Orbital Period (minutes)
Azimuth
Elevation
Range (km)
Doppler Factor

Next 0 passes for location: London (51.5072 / 0.1276)

No passes found over London.
LDPE-2